Location: Fairmont
(43.6520°N, 94.4610°W)
Time: 15:26:58
(UTC-05:00)

Daily predictions for brighter satellites

Satellite Brightness Start Highest point End
(mag) Time Altitude Azimuth Time Altitude Azimuth Time Altitude Azimuth
Cosmos 2237 Rocket 4.2 21:30:04 10° N 21:33:37 16° NE 21:37:09 10° E
Cosmos 2322 3.8 21:30:37 10° NNW 21:36:22 77° ENE 21:42:04 10° SSE
SL-23 DEB 4.2 21:30:29 10° WNW 21:36:29 81° NNE 21:40:07 10° ESE
Cosmos 2322 Rocket 3.5 21:31:39 10° NW 21:36:48 38° WSW 21:41:57 10° S
Cosmos 2112 Rocket 4.3 21:32:21 10° NNW 21:37:31 57° ENE 21:42:42 10° SE
Cosmos 2151 3.3 21:37:50 10° SSE 21:41:52 48° E 21:45:56 10° NNE
Cosmos 1515 Rocket 4.1 21:38:04 10° NNW 21:42:28 62° W 21:46:47 10° S
Cosmos 1777 Rocket 4.2 21:38:40 10° SSW 21:43:56 79° WNW 21:49:13 10° NNE
Nimbus 7 Rocket 4.4 21:39:52 10° NNE 21:45:41 65° ESE 21:51:30 10° S
Cosmos 2360 Rocket 2.3 21:40:12 10° NNW 21:45:53 88° WSW 21:51:33 10° SSE
NOSS 3-1 (C) 3.9 21:40:38 10° S 21:45:56 37° ESE 21:51:44 10° NE
Terra 3.9 21:45:07 10° E 21:47:30 14° ENE 21:49:53 10° NNE
SL-16 R/B 3.7 21:43:17 10° NW 21:48:19 34° WSW 21:53:20 10° SSW
Aureole 3 4.5 21:43:45 10° S 21:50:10 56° E 21:55:19 10° NNE
MetOp-B 4.4 21:45:41 10° SSE 21:50:54 57° ENE 21:56:09 10° N
Sich 1 4.3 21:49:08 10° SE 21:52:43 25° E 21:56:17 10° NE
DELTA 2 R/B (1) 4.3 21:47:57 10° W 21:53:07 40° SSW 21:58:07 11° SE
SWAS 4.5 21:49:19 10° NNW 21:53:40 79° ENE 21:57:59 10° SSE
Cosmos 1908 3.6 21:49:53 10° NNW 21:53:46 66° W 21:57:39 10° S
CZ-4 SHROUD 3.3 21:51:46 10° SSE 21:54:52 63° ENE 21:57:59 10° N
USA 245 3.8 21:53:36 11° ESE 21:55:21 20° ENE 21:57:11 10° NNE
Cosmos 1633 Rocket 4.2 21:52:49 10° SE 21:56:24 25° E 21:59:59 10° NNE
Cosmos 2058 3.4 21:53:05 10° SSE 21:56:57 42° E 22:00:50 10° NNE
Cosmos 1151 Rocket 3.3 21:55:02 10° NNW 21:59:20 70° W 22:03:37 10° S
Cosmos 405 3.7 21:57:34 10° NNW 22:01:09 55° W 22:04:41 10° S
Cosmos 1674 3.2 21:59:15 10° SSW 22:03:04 63° W 22:06:55 10° N
SL-08 RB Rocket 4.4 22:06:50 13° SE 22:10:28 38° ENE 22:14:39 10° N
Cosmos 2266 Rocket 4.3 22:04:28 10° SSW 22:10:45 72° W 22:16:58 10° N
CZ-4B R/B 3.8 22:05:49 10° NNE 22:10:59 52° E 22:16:01 10° S
Cosmos 1805 Rocket 3.6 22:07:23 10° S 22:11:46 61° E 22:16:10 10° NNE
H-2A R/B 3.3 22:08:02 11° ESE 22:12:16 29° ENE 22:16:53 10° N
Cosmos 1680 Rocket 4.0 22:08:51 10° NNW 22:14:01 61° WSW 22:19:12 10° S
Cosmos 1300 2.8 22:10:52 10° N 22:14:42 63° E 22:17:52 14° SSE
Cosmos 2227 Rocket 3.5 22:11:30 13° SE 22:14:42 21° E 22:18:48 10° NE
Meteor 1-11 4.4 22:09:12 10° S 22:14:50 58° E 22:20:26 10° NNE
Tiangong 1 1.9 22:12:14 10° SW 22:14:58 28° SSE 22:17:13 13° E
Cosmos 2315 Rocket 4.0 22:09:07 10° N 22:15:22 88° E 22:21:34 10° S
YAOGAN 6 2.5 22:12:45 13° SSE 22:16:00 77° ENE 22:19:37 10° N
SPOT 1/Viking Rocket 3.5 22:19:48 13° SSE 22:24:25 79° ENE 22:29:36 10° NNW
Cosmos 2333 Rocket 3.0 22:21:34 10° NNW 22:27:00 41° ENE 22:31:18 16° ESE
SL-16 R/B 4.1 22:23:14 10° N 22:27:13 19° NE 22:31:10 10° E
Cosmos 1898 Rocket 3.6 22:23:12 10° S 22:28:14 56° ESE 22:33:21 10° NNE
H-2A R/B 3.9 22:24:26 10° SSW 22:28:24 29° W 22:32:22 10° NW
DELTA 2 R/B(2) 4.3 22:27:19 10° SW 22:28:59 30° SSE 22:29:21 28° SSE
Cosmos 1707 Rocket 3.5 22:24:52 10° N 22:29:14 88° W 22:32:56 14° S
Cosmos 1666 Rocket 3.5 22:29:56 10° S 22:34:18 79° E 22:38:46 10° N
Meteor 2-11 Rocket 4.5 22:29:10 10° N 22:35:21 90° ESE 22:40:46 14° S
Cosmos 2150 Rocket 4.1 22:30:18 10° S 22:35:40 68° ESE 22:41:08 10° NNE
Cosmos 1455 3.5 22:33:55 10° NNE 22:37:11 26° ENE 22:38:49 19° ESE
SPOT 5 3.9 22:33:12 10° SSW 22:37:31 41° W 22:42:05 10° NNW
Nadezhda 1 Rocket 4.4 22:32:19 10° N 22:38:10 47° ENE 22:42:18 19° SE
COSMOS 2428 2.9 22:33:12 10° NNW 22:38:51 69° WSW 22:43:18 17° SSE
Cosmos 2297 Rocket 3.4 22:39:29 19° SE 22:41:40 24° ESE 22:46:06 10° NE
ARGOS 3.2 22:41:02 16° S 22:45:25 82° WSW 22:50:50 10° NNW
Cosmos 2219 Rocket 2.2 22:41:18 10° NNW 22:46:55 72° ENE 22:50:35 22° SE
Cosmos 1470 Rocket 4.0 22:45:42 23° SSE 22:47:55 43° E 22:52:01 10° NNE
Cosmos 1933 Rocket 4.1 22:46:48 23° SSE 22:49:08 43° E 22:53:23 10° NNE
NOSS 3-1 (A) 3.4 22:43:49 10° SSW 22:49:42 79° SE 22:56:17 10° NE
SL-08 R/B 4.5 22:44:56 13° S 22:50:28 73° E 22:56:45 10° NNE
Cosmos 1745 Rocket 4.0 22:47:12 16° S 22:52:13 65° E 22:58:19 10° NNE
Cosmos 1869 4.2 22:50:57 10° N 22:54:42 35° ENE 22:56:15 26° ESE
Cosmos 1726 2.8 22:51:53 10° NNW 22:55:34 51° W 22:58:06 18° SSW
DMSP B5D2-2 4.4 22:53:34 10° NNE 22:58:37 47° E 23:01:25 24° SSE
CZ-4C R/B 3.0 22:59:54 31° S 23:01:27 81° WSW 23:04:55 10° NNW
NOSS 0 Rocket 3.9 22:55:18 10° NNW 23:01:29 84° ENE 23:05:19 25° SSE
ERBS 2.8 23:05:21 39° SE 23:05:22 39° SE 23:08:39 10° ENE
Cosmos 1980 3.7 23:00:19 10° NNW 23:05:59 74° ENE 23:09:10 27° SE
USA 32 4.2 23:00:46 10° N 23:06:02 74° W 23:09:42 20° S
Cosmos 292 Rocket 3.9 23:01:55 10° NNW 23:06:40 66° WSW 23:09:18 26° S
Landsat 7 3.9 23:05:56 25° S 23:08:45 77° WSW 23:13:32 10° NNW
ATLAS 2AS CENTAUR R/B 3.2 23:05:37 13° S 23:12:09 51° ESE 23:19:50 10° NE
Cosmos 1271 Rocket 3.4 23:09:37 10° NNW 23:13:21 49° W 23:15:19 25° SSW
Cosmos 1386 Rocket 4.4 23:12:51 23° S 23:16:43 73° E 23:22:44 10° NNE
Cosmos 1346 2.9 23:17:15 59° S 23:17:45 84° E 23:20:47 10° NNE
Meteor 1-4 Rocket 3.7 23:14:30 10° NNW 23:18:00 38° W 23:19:52 22° SSW
Cosmos 2237 Rocket 2.2 23:12:50 10° NNW 23:18:35 85° ENE 23:21:31 30° SSE
Cosmos 1703 3.8 23:16:40 20° SSW 23:19:13 55° W 23:23:05 10° N
Meteor 2-10 4.5 23:14:51 10° NNW 23:20:31 66° W 23:24:06 23° S
Cosmos 2082 3.6 23:19:48 19° SSW 23:23:57 73° ESE 23:29:41 10° NNE
Iridium 2 4.4 23:22:18 23° SSW 23:24:25 52° W 23:28:11 10° N
Terra 1.8 23:22:18 31° S 23:24:36 76° WSW 23:29:24 10° NNW
Cosmos 2181 Rocket 4.4 23:19:48 10° N 23:26:01 51° ENE 23:29:09 28° SE
Cosmos 1937 Rocket 3.9 23:21:51 10° SSW 23:27:02 62° WNW 23:32:12 10° NNE
ATLAS 3B R/B 3.0 23:20:03 10° NNW 23:27:03 59° NE 23:31:15 23° ESE
Lacrosse 4 Rocket 2.5 23:23:43 10° NNW 23:27:52 38° NE 23:29:44 26° ESE
Cosmos 1862 Rocket 3.5 23:23:40 10° N 23:28:01 78° W 23:29:43 36° S
Spot 4 3.8 23:26:34 34° SSE 23:28:43 88° WSW 23:33:37 10° NNW
CARTOSAT-1 3.9 23:28:15 32° S 23:30:06 60° W 23:34:24 10° NNW
Cosmos 1626 2.4 23:35:44 36° SSW 23:37:05 65° W 23:40:50 10° N
Cosmos 990 Rocket 4.2 23:33:44 16° SSW 23:37:47 70° WNW 23:42:56 10° NNE
OAO 2 Rocket 4.3 23:38:38 10° WSW 23:42:20 30° SSW 23:42:20 30° SSW
COSMOS 2455 2.9 23:44:39 10° NNW 23:50:42 79° ENE 23:53:21 36° SE
Tiangong 1 3.0 23:48:15 10° WSW 23:49:20 20° WSW 23:49:20 20° WSW
H-2A R/B 3.0 23:48:40 24° SSW 23:51:28 41° W 23:56:37 10° NNW
Cosmos 1269 Rocket 4.0 23:47:17 10° NNW 23:52:37 86° ENE 23:54:28 42° SSE
Cosmos 1933 3.2 23:50:03 10° N 23:54:08 86° ENE 23:54:51 60° SSE
